Overview Statistics Trail Chart Weather Telemetry Raw packets
 

This is the latest recevied weather packets stored in our database for station/object KQ7A. If no packets are shown the sender has not sent any weather packets the latest 10 day(s).

<< 102 103 104 105 106 107 108 >>
Time Temp. Humidity Pressure Rain* Wind** Luminosity Snow
1787912882 16.67° C 52% 1020.6 hPa 0 mm - 0 W/m² -
1787912581 17.22° C 45% 1020.4 hPa 0 mm - 0 W/m² -
1787912280 17.78° C 40% 1020.4 hPa 0 mm - 0 W/m² -
1787911974 17.78° C 35% 1020.5 hPa 0 mm - 0 W/m² -
1787911670 17.78° C 36% 1020.6 hPa 0 mm - 0 W/m² -
1787911369 17.78° C 35% 1020 hPa 0 mm - 0 W/m² -
1787911065 17.78° C 40% 1020.5 hPa 0 mm - 0 W/m² -
1787910761 17.22° C 37% 1020.5 hPa 0 mm - 0 W/m² -
1787910456 16.67° C 41% 1020.5 hPa 0 mm - 0 W/m² -
1787910151 16.67° C 41% 1020.5 hPa 0 mm - 0 W/m² -
1787909849 16.67° C 44% 1020.6 hPa 0 mm - 0 W/m² -
1787909548 16.67° C 51% 1020.7 hPa 0 mm - 0 W/m² -
1787909243 17.22° C 40% 1020.7 hPa 0 mm - 0 W/m² -
1787908939 17.78° C 35% 1020.5 hPa 0 mm - 0 W/m² -
1787908638 17.22° C 38% 1020.7 hPa 0 mm - 0 W/m² -
1787908337 17.22° C 37% 1020.6 hPa 0 mm - 0 W/m² -
1787908036 17.78° C 35% 1020.8 hPa 0 mm - 0 W/m² -
1787907733 17.78° C 35% 1020.8 hPa 0 mm - 0 W/m² -
1787907432 17.78° C 36% 1020.9 hPa 0 mm - 0 W/m² -
1787907128 17.22° C 40% 1020.8 hPa 0 mm - 0 W/m² -
1787906824 17.22° C 41% 1020.9 hPa 0 mm - 0 W/m² -
1787906520 17.22° C 42% 1020.9 hPa 0 mm - 0 W/m² -
1787906220 16.67° C 44% 1020.6 hPa 0 mm - 0 W/m² -
1787905914 16.67° C 47% 1020.9 hPa 0 mm - 0 W/m² -
1787905609 16.67° C 49% 1020.8 hPa 0 mm - 0 W/m² -

* Rain latest hour (hover to see other rain measurements)
** Current wind speed in m/s (hover to see current wind gust speed)